Temp
62 62 62 62 61 61 62 62 62 62 62 62 62 62 62 62 61 57 61 75 75 72 75 73 75 74 73 71 72 70 60 54 59 61 62 69 67 73 79 73 75 76 74 75 77
62 62 62 62 62 61 61 61 61 62 62 62 62 62 62 61 56 59 74 74 74 74 77 75 73 75 68 69 69 67 57 61 69 69 66 71 70 73 71 71 69 71 73 76 75
61 61 61 61 61 61 61 61 61 61 62 62 61 61 61 60 61 74 76 74 74 75 80 78 77 75 66 68 71 66 62 70 74 74 73 70 70 73 69 64 70 67 70 73 72
61 61 61 61 61 61 60 61 61 62 62 61 61 61 62 59 61 75 76 75 75 77 79 76 73 67 64 65 70 67 74 76 75 75 73 70 72 69 70 69 77 75 74 73 71
60 61 61 61 60 60 60 60 60 61 61 61 61 61 60 63 69 75 77 76 75 78 76 73 70 67 64 68 69 68 74 74 77 74 72 73 69 68 68 75 78 78 76 73 72
60 60 60 60 60 60 60 59 59 59 60 61 62 62 62 61 79 77 76 76 77 76 76 74 74 72 67 69 69 72 73 71 73 71 73 72 69 73 71 76 75 76 75 75 73
60 60 60 60 60 60 59 58 58 59 60 62 63 64 63 70 80 77 77 75 76 79 76 76 76 72 71 68 71 73 68 70 70 70 70 73 66 69 73 75 73 74 75 71 71
59 59 59 59 59 59 59 58 58 59 61 63 63 61 62 79 77 77 74 74 78 78 78 81 76 69 70 71 71 66 64 58 66 71 73 70 59 70 74 73 70 73 72 69 69
59 59 59 59 59 59 58 58 59 61 64 64 59 58 64 78 78 81 79 77 78 78 79 89 75 69 71 64 60 62 56 58 64 69 70 68 62 71 74 73 67 68 68 68 68
59 58 58 58 58 58 57 58 60 61 65 68 72 60 68 73 80 82 81 80 76 77 75 73 67 63 60 61 54 57 57 57 61 67 68 64 65 69 72 71 67 67 67 68 66
59 58 57 57 57 57 55 54 62 61 64 64 66 67 75 82 85 82 84 80 75 71 64 67 62 58 63 63 67 65 63 64 65 71 66 65 64 68 71 71 66 66 66 65 66
58 58 58 57 57 57 52 57 62 60 52 71 71 71 79 79 74 80 85 74 68 62 65 63 59 67 69 68 67 66 64 62 66 70 68 64 64 67 71 70 68 68 68 66 64
57 57 57 57 56 55 54 60 64 59 52 64 71 71 72 76 72 73 81 76 68 61 61 58 66 72 70 66 67 64 63 63 65 66 64 61 62 62 66 68 70 71 70 67 63
56 56 56 55 55 50 55 64 64 60 47 58 64 71 74 77 72 82 84 77 66 65 63 60 70 70 66 67 68 59 71 70 67 61 54 62 51 57 60 63 67 69 67 65 65
56 56 56 55 49 49 62 62 64 61 38 67 66 78 74 73 74 76 83 76 67 68 64 61 65 65 64 67 71 67 71 69 67 59 55 55 50 57 59 56 61 63 66 66 64
56 56 55 54 49 53 58 59 59 49 40 63 69 67 67 72 73 75 76 78 75 66 63 65 68 69 69 74 72 72 66 63 56 52 47 53 51 52 54 58 62 66 67 64 62
55 55 53 57 51 56 56 57 46 40 63 62 64 64 66 65 69 70 67 64 60 54 53 62 63 68 73 64 67 66 58 47 45 44 46 51 50 54 60 62 65 66 64 63 63
54 53 51 55 52 54 55 51 39 55 57 69 68 65 62 64 66 66 63 60 61 61 55 54 52 64 70 67 62 61 60 48 41 41 48 53 49 57 63 65 65 65 64 62 62
52 49 50 53 57 56 50 41 46 53 65 62 64 59 57 64 64 63 61 60 65 65 57 51 56 70 71 72 70 60 56 63 52 45 45 48 55 62 61 60 61 60 61 60 62
48 46 48 58 61 54 47 44 49 63 66 65 55 59 55 60 60 59 58 66 67 69 67 62 55 67 70 71 65 65 67 54 47 41 39 45 49 51 58 58 59 58 59 61 61
47 47 58 62 60 51 42 44 54 65 66 60 57 57 60 59 61 56 60 69 71 69 72 62 58 59 63 60 62 60 57 54 52 48 43 41 47 57 61 62 60 60 60 60 60
46 44 61 63 49 46 42 51 56 62 67 64 61 59 58 60 59 60 60 66 75 69 64 63 58 52 58 66 68 63 62 57 49 48 45 45 49 64 62 64 62 58 59 61 61
46 47 61 60 43 43 49 57 60 59 62 64 61 63 63 58 55 62 64 76 73 70 63 64 54 48 53 57 61 62 60 57 53 49 46 46 49 64 61 60 59 57 59 60 62
47 46 54 53 51 48 48 51 53 63 62 66 64 63 59 57 59 60 63 72 73 75 67 70 54 56 51 55 60 60 64 60 55 47 51 51 55 59 59 59 57 58 60 61 61
46 45 52 44 47 48 49 52 52 52 61 65 61 60 58 53 57 57 63 65 70 65 64 63 57 58 60 64 64 63 64 63 59 59 56 60 57 63 64 61 60 61 62 61 58
45 47 49 49 48 48 48 48 52 57 56 60 56 62 58 55 59 58 60 58 58 64 57 57 56 59 58 63 64 63 66 63 63 62 59 60 57 62 61 63 61 62 62 59 59
48 51 48 46 50 48 50 50 53 55 60 64 65 59 59 61 65 66 64 63 62 58 58 56 53 51 52 60 61 54 60 61 61 62 62 56 62 60 59 62 62 62 64 61 61
MSLP
1018.88 1018.57 1018.20 1017.83 1017.41 1016.93 1016.29 1015.67 1015.36 1015.10 1014.40 1013.74 1013.16 1012.57 1012.48 1012.06 1011.63 1011.72 1010.59 1007.77 1007.61 1007.93 1008.50 1009.26 1009.62 1009.58 1009.62 1009.73 1009.76 1010.26 1011.22 1011.95 1011.79 1011.94 1011.67 1011.56 1012.01 1012.39 1012.77 1013.31 1013.36 1013.33 1013.66 1014.47 1015.82
1018.76 1018.42 1018.01 1017.61 1017.16 1016.79 1016.26 1015.58 1015.21 1014.96 1014.66 1013.79 1013.01 1012.36 1012.27 1012.03 1011.47 1010.26 1007.08 1006.91 1007.21 1007.74 1008.56 1008.80 1009.25 1009.46 1009.93 1009.92 1010.05 1010.26 1011.18 1010.87 1010.27 1010.45 1011.02 1011.38 1011.81 1012.27 1012.78 1013.39 1013.59 1013.59 1014.20 1014.96 1015.90
1018.59 1018.23 1017.84 1017.37 1016.87 1016.46 1015.99 1015.41 1014.72 1014.44 1014.14 1013.73 1012.88 1012.16 1012.25 1011.76 1010.65 1007.43 1006.21 1006.82 1007.15 1007.50 1007.84 1008.17 1008.50 1009.00 1009.53 1009.49 1009.60 1009.89 1010.05 1009.40 1009.08 1009.35 1010.12 1011.51 1012.06 1012.31 1012.74 1013.56 1013.46 1013.43 1014.46 1015.26 1016.04
1018.50 1018.03 1017.62 1017.17 1016.69 1016.18 1015.59 1015.24 1014.66 1014.06 1013.56 1013.34 1012.69 1012.08 1011.67 1011.26 1009.28 1006.37 1006.14 1006.75 1007.10 1007.69 1007.88 1008.16 1008.42 1008.92 1009.20 1009.22 1008.63 1008.97 1008.47 1008.32 1008.55 1009.19 1010.21 1011.20 1011.74 1012.37 1012.61 1012.51 1012.84 1013.36 1014.03 1015.17 1016.06
1018.37 1017.94 1017.42 1016.91 1016.39 1015.85 1015.30 1014.71 1014.19 1013.79 1013.18 1012.79 1012.58 1011.90 1011.15 1010.39 1008.05 1006.12 1006.13 1006.84 1007.40 1007.91 1007.95 1008.11 1008.26 1008.69 1008.68 1008.49 1008.25 1008.35 1008.30 1008.51 1008.28 1009.32 1010.29 1011.21 1011.65 1012.04 1012.34 1012.35 1012.83 1013.69 1014.52 1015.21 1016.02
1018.21 1017.79 1017.27 1016.65 1016.11 1015.47 1014.86 1014.01 1013.52 1012.97 1013.00 1012.37 1012.05 1011.97 1011.40 1009.72 1006.21 1006.05 1006.35 1006.98 1007.12 1007.68 1007.96 1008.02 1007.78 1007.93 1008.20 1008.20 1008.05 1008.02 1008.42 1009.12 1009.35 1009.99 1010.64 1011.28 1011.75 1011.74 1012.19 1012.38 1013.15 1013.56 1014.32 1015.15 1015.64
1018.01 1017.51 1016.96 1016.35 1015.69 1015.27 1014.64 1013.88 1013.12 1012.36 1012.07 1011.93 1011.83 1011.91 1011.03 1007.52 1006.01 1006.17 1006.33 1006.77 1006.78 1007.15 1007.50 1007.63 1007.40 1007.59 1008.05 1007.93 1007.87 1008.20 1009.20 1009.68 1010.08 1010.24 1010.76 1011.22 1012.20 1011.79 1011.91 1012.57 1013.12 1013.54 1014.05 1014.83 1015.65
1017.71 1017.24 1016.67 1016.04 1015.24 1014.52 1013.87 1013.01 1012.13 1011.53 1011.04 1010.90 1011.12 1011.26 1009.17 1005.80 1005.87 1006.31 1006.37 1006.73 1006.82 1007.05 1007.14 1007.15 1007.12 1007.44 1007.68 1007.63 1008.16 1008.94 1009.55 1010.28 1010.34 1010.36 1010.72 1011.17 1011.48 1011.48 1011.82 1012.58 1013.40 1013.94 1014.51 1015.08 1015.65
1017.44 1017.06 1016.44 1015.79 1015.00 1014.05 1013.28 1012.17 1010.97 1010.75 1010.43 1010.63 1011.08 1010.64 1007.98 1005.78 1005.90 1005.64 1005.81 1006.13 1006.51 1007.00 1007.13 1006.99 1007.16 1007.53 1007.67 1008.29 1009.24 1009.82 1010.22 1010.55 1010.67 1010.52 1010.77 1011.10 1011.09 1011.11 1011.83 1012.49 1013.38 1014.12 1014.93 1015.43 1015.94
1017.23 1016.79 1016.30 1015.66 1014.88 1013.88 1012.75 1011.02 1010.06 1010.40 1010.64 1010.57 1010.03 1010.07 1007.04 1005.50 1004.95 1005.12 1005.44 1005.89 1006.16 1006.75 1007.13 1007.18 1007.53 1007.81 1008.48 1008.85 1009.31 1009.64 1010.09 1010.36 1010.29 1010.38 1010.51 1010.67 1010.54 1010.69 1011.35 1012.13 1012.75 1013.43 1014.14 1014.92 1015.85
1017.07 1016.61 1016.14 1015.56 1014.61 1013.99 1013.00 1011.36 1010.78 1010.54 1010.12 1009.40 1008.51 1007.69 1006.01 1005.11 1004.36 1004.83 1004.99 1005.71 1005.85 1006.39 1006.91 1007.14 1007.85 1007.88 1008.07 1008.28 1008.33 1008.72 1009.14 1009.61 1009.28 1009.07 1009.80 1010.06 1010.48 1010.42 1010.61 1011.61 1012.39 1012.81 1013.52 1014.50 1015.67
1016.93 1016.51 1015.90 1015.33 1014.35 1013.73 1013.74 1013.15 1012.52 1012.97 1011.04 1008.23 1007.33 1006.56 1005.72 1005.63 1005.48 1004.52 1004.63 1005.66 1006.04 1006.67 1006.91 1007.45 1007.43 1007.48 1007.66 1007.98 1007.89 1008.39 1008.73 1008.90 1008.72 1008.81 1009.67 1010.00 1009.88 1010.10 1010.35 1010.47 1010.95 1011.79 1013.06 1014.28 1015.55
1016.73 1016.35 1015.80 1015.02 1013.85 1013.57 1013.69 1012.54 1011.97 1012.19 1011.39 1007.44 1005.98 1005.17 1004.72 1005.12 1004.92 1004.39 1004.63 1004.94 1005.99 1006.83 1006.98 1007.16 1007.06 1007.03 1007.26 1007.59 1007.80 1008.03 1008.24 1008.39 1008.67 1009.01 1009.62 1010.29 1010.27 1010.11 1010.35 1010.40 1010.97 1011.60 1012.56 1013.73 1014.74
1016.55 1016.19 1015.82 1014.93 1013.88 1014.21 1012.95 1011.83 1011.58 1011.65 1010.70 1006.96 1005.10 1003.48 1003.87 1003.94 1004.00 1003.44 1003.95 1004.72 1005.61 1006.40 1007.17 1007.12 1006.48 1006.59 1006.86 1007.00 1007.26 1007.54 1007.27 1007.95 1008.85 1010.03 1010.49 1010.63 1010.83 1010.12 1010.30 1010.61 1010.83 1011.56 1012.24 1012.85 1013.46
1016.39 1016.06 1015.83 1015.56 1015.25 1014.38 1012.38 1011.62 1011.05 1010.88 1009.60 1004.98 1003.69 1002.42 1002.33 1003.19 1002.98 1003.06 1003.34 1004.10 1005.20 1005.90 1006.83 1006.69 1006.31 1006.25 1006.44 1006.25 1006.61 1006.78 1006.98 1008.01 1008.81 1010.03 1011.02 1011.47 1011.72 1010.26 1010.44 1010.75 1010.92 1010.92 1011.32 1011.88 1013.28
1016.27 1015.87 1015.69 1015.33 1015.17 1013.23 1012.53 1011.71 1011.11 1011.00 1007.92 1004.11 1002.89 1002.54 1002.70 1002.78 1002.87 1003.06 1003.46 1003.86 1004.73 1005.90 1006.38 1006.54 1006.06 1005.81 1005.69 1005.65 1006.08 1006.42 1007.09 1008.27 1009.59 1010.98 1011.80 1011.27 1011.66 1010.49 1010.42 1009.66 1009.68 1010.31 1010.42 1011.67 1012.72
1015.89 1015.57 1015.53 1014.89 1013.72 1012.55 1012.59 1011.99 1011.75 1009.71 1005.92 1003.98 1003.01 1002.73 1002.48 1002.85 1003.09 1003.24 1003.87 1004.54 1005.24 1006.19 1006.52 1006.56 1006.12 1005.48 1005.35 1005.64 1006.04 1006.73 1008.13 1009.57 1011.09 1012.12 1011.90 1011.32 1011.92 1010.36 1008.81 1008.59 1008.85 1009.06 1010.11 1011.51 1012.91
1015.35 1014.82 1013.75 1013.18 1012.74 1012.93 1013.03 1012.44 1011.27 1007.95 1005.94 1004.14 1003.20 1002.95 1003.05 1003.00 1003.45 1003.62 1004.22 1004.98 1005.44 1005.76 1006.56 1006.61 1006.10 1005.27 1004.93 1005.09 1005.76 1006.69 1007.82 1009.41 1010.62 1011.96 1011.69 1011.51 1010.86 1008.77 1008.06 1008.50 1009.08 1009.68 1010.54 1011.41 1012.26
1015.03 1014.06 1013.44 1011.69 1012.21 1012.73 1013.21 1012.29 1009.86 1007.91 1006.16 1005.03 1003.65 1003.45 1003.50 1003.23 1003.36 1003.98 1004.36 1004.84 1004.94 1005.29 1005.96 1006.27 1005.69 1004.52 1004.17 1004.45 1005.17 1006.42 1007.50 1008.00 1009.89 1011.34 1011.76 1010.97 1009.80 1008.19 1008.11 1008.73 1009.53 1010.19 1010.81 1011.50 1012.60
1015.16 1014.21 1012.59 1010.97 1011.44 1012.36 1012.71 1011.43 1009.70 1007.69 1006.50 1005.35 1004.71 1003.99 1003.49 1003.33 1003.65 1003.72 1004.19 1003.75 1004.07 1004.24 1004.74 1005.46 1005.51 1004.38 1003.69 1003.95 1004.75 1005.31 1006.21 1008.15 1010.03 1011.15 1011.80 1011.10 1010.03 1008.59 1008.26 1008.59 1009.29 1010.12 1010.34 1011.04 1012.10
1014.91 1013.76 1010.78 1010.63 1010.93 1012.24 1012.14 1011.03 1009.45 1007.75 1006.88 1006.15 1005.45 1004.78 1003.72 1003.38 1003.35 1003.51 1003.34 1002.75 1002.74 1003.34 1004.07 1005.14 1005.53 1005.30 1004.39 1004.34 1004.72 1005.62 1006.21 1007.52 1009.04 1010.17 1010.83 1010.73 1009.66 1007.07 1006.79 1007.19 1008.21 1008.96 1009.84 1010.51 1011.65
1014.73 1013.38 1010.81 1010.55 1011.42 1012.00 1011.60 1010.39 1009.20 1007.94 1006.99 1006.42 1005.59 1005.13 1004.12 1003.70 1003.11 1002.90 1002.62 1001.89 1001.25 1002.58 1003.98 1004.62 1005.31 1005.56 1005.19 1004.28 1004.21 1004.71 1005.47 1006.74 1008.70 1009.62 1010.05 1009.52 1007.66 1005.86 1006.15 1006.50 1007.51 1008.67 1009.42 1010.43 1011.35
1015.04 1013.34 1010.83 1010.80 1011.39 1011.78 1011.17 1010.13 1009.25 1008.28 1007.23 1006.39 1005.58 1004.79 1004.23 1004.10 1003.39 1002.27 1001.57 1000.19 1001.02 1001.98 1002.81 1004.03 1005.12 1005.56 1005.31 1004.85 1004.29 1004.29 1004.84 1005.61 1006.57 1007.64 1008.67 1008.87 1007.02 1005.91 1006.18 1006.88 1007.51 1008.42 1009.54 1010.48 1011.20
1015.29 1013.60 1011.67 1011.27 1011.29 1011.31 1011.00 1010.17 1009.36 1008.05 1007.09 1006.15 1005.35 1004.82 1004.44 1003.85 1002.95 1002.39 1001.35 1000.18 1000.11 1000.77 1001.50 1002.49 1004.24 1004.72 1004.75 1004.22 1003.60 1003.78 1004.11 1004.63 1005.56 1006.91 1007.16 1007.12 1006.32 1006.02 1006.33 1006.65 1007.44 1008.49 1009.47 1010.33 1011.00
1015.35 1014.02 1013.09 1012.15 1011.89 1011.64 1011.03 1010.37 1009.62 1008.61 1007.02 1005.87 1005.00 1004.86 1004.76 1003.97 1003.19 1002.54 1001.52 1000.85 1000.74 1001.09 1002.03 1002.54 1004.08 1004.20 1003.74 1003.53 1003.44 1003.16 1003.38 1003.83 1004.60 1004.70 1005.66 1005.28 1005.50 1004.81 1004.99 1005.66 1006.55 1007.52 1009.01 1010.09 1011.13
1015.39 1014.33 1013.61 1012.90 1012.27 1011.73 1011.09 1010.48 1009.68 1008.56 1007.58 1005.90 1005.09 1004.60 1004.49 1004.34 1003.34 1002.61 1001.96 1001.43 1001.69 1001.75 1002.30 1003.00 1003.73 1004.06 1004.06 1003.52 1003.35 1003.14 1002.97 1003.01 1003.46 1003.73 1003.95 1004.11 1004.24 1003.82 1004.74 1005.58 1006.83 1007.49 1008.57 1009.49 1010.36
1015.32 1014.68 1014.47 1013.32 1012.51 1011.90 1011.42 1010.94 1010.01 1009.38 1007.11 1006.00 1005.36 1005.25 1004.73 1004.22 1003.64 1002.20 1001.73 1001.59 1001.62 1002.11 1002.58 1003.32 1003.98 1004.81 1004.69 1003.77 1003.51 1003.32 1002.70 1002.74 1002.98 1002.86 1003.04 1003.49 1003.58 1003.89 1004.81 1005.50 1006.10 1007.03 1007.75 1008.52 1009.48
Wind_Speed
14 14 15 16 16 18 19 20 18 18 19 19 19 19 16 14 12 3 7 11 8 13 6 8 4 3 2 2 0 4 5 1 5 7 3 5 5 5 4 10 4 5 5 12 17
14 14 14 15 17 17 19 20 18 17 16 19 19 20 16 12 3 7 10 9 6 18 7 9 7 8 2 3 1 5 3 7 8 8 6 7 8 12 6 11 2 9 13 17 19
13 14 14 15 17 18 19 19 20 19 17 17 19 19 14 7 3 5 9 11 10 15 6 5 6 6 3 2 6 6 7 8 6 9 14 9 7 3 14 5 10 19 19 21 20
13 15 16 17 17 18 20 19 20 21 20 16 17 18 13 1 3 1 9 11 13 7 6 5 4 5 4 5 4 4 4 7 7 10 11 14 8 5 9 6 14 17 20 17 18
13 15 16 18 19 20 21 21 21 20 20 18 15 15 5 4 9 1 12 12 8 7 6 5 5 5 4 5 4 4 2 3 11 13 9 9 6 7 7 8 12 16 18 16 15
13 15 17 18 19 21 21 24 22 22 18 18 14 9 2 4 3 8 11 9 7 6 7 6 8 6 3 4 6 3 6 4 9 8 8 6 5 8 5 13 13 15 16 17 16
13 15 17 20 21 20 21 22 23 24 21 19 11 4 2 14 3 7 9 6 8 6 6 5 3 3 1 3 3 5 9 6 6 4 5 7 2 5 8 14 16 16 13 9 13
13 15 18 20 22 22 23 24 26 25 24 14 8 4 8 5 5 7 3 3 5 4 1 6 2 2 5 1 7 5 7 6 2 5 4 5 6 5 12 15 13 14 10 11 12
13 15 18 19 23 25 25 28 29 16 7 11 6 3 9 1 4 6 6 4 6 4 4 3 2 3 3 5 5 6 6 4 1 5 4 6 4 7 12 12 10 9 12 13 13
14 15 17 19 22 25 27 29 17 3 3 5 3 2 4 3 3 6 4 3 4 6 4 4 3 3 4 3 6 6 6 2 6 9 8 6 5 9 14 11 15 14 15 16 15
14 16 17 18 22 22 17 8 7 5 3 5 5 5 5 6 1 5 6 6 2 4 5 3 5 6 9 4 5 7 7 8 6 7 5 11 7 13 17 12 13 16 15 15 15
14 16 19 20 23 22 2 4 6 1 11 10 15 11 12 3 4 2 8 5 5 5 3 4 6 8 4 3 2 4 6 4 4 3 4 1 5 9 16 19 19 20 17 17 13
14 15 18 21 26 3 3 5 4 1 4 9 8 8 6 11 8 7 12 7 5 5 4 6 3 7 6 4 4 4 6 5 5 3 3 3 9 4 6 7 15 14 16 16 18
14 15 15 23 4 5 5 6 9 2 3 9 6 9 7 8 4 9 13 8 3 9 7 4 4 5 4 5 7 3 8 4 4 4 5 4 6 5 3 9 14 14 15 18 19
14 15 13 8 4 4 7 13 13 3 4 4 5 1 9 11 5 4 6 5 8 6 8 8 6 5 5 7 6 10 8 8 6 5 4 0 3 8 4 2 7 14 17 20 17
15 14 13 1 2 9 10 13 2 6 9 5 7 7 6 6 3 5 6 4 5 5 2 9 1 5 8 6 8 2 1 7 6 4 1 7 7 8 6 9 11 9 18 17 19
17 17 9 2 6 1 6 4 5 4 5 4 4 4 9 8 8 4 8 7 7 6 4 1 6 4 4 2 2 6 7 4 5 2 8 4 4 12 8 9 8 18 12 14 15
17 21 8 7 4 2 4 4 4 4 6 5 4 4 8 6 8 5 6 6 3 5 4 7 4 8 3 9 7 7 11 8 8 5 7 5 7 10 3 3 3 6 9 15 17
19 3 4 5 9 3 5 2 7 4 5 7 9 4 2 4 6 5 9 7 9 9 7 6 6 4 6 7 13 5 4 6 5 2 3 5 7 9 5 4 4 6 8 14 14
4 4 5 3 12 5 4 5 5 3 8 4 2 3 8 8 6 10 9 8 6 11 7 7 1 4 2 5 2 8 8 3 3 2 5 4 5 8 6 11 9 13 14 15 14
1 4 3 9 3 5 4 7 4 6 7 5 3 5 2 5 9 6 10 9 12 10 15 7 5 4 3 3 7 2 2 5 6 6 7 3 8 9 11 11 17 13 14 14 16
3 2 3 4 4 2 3 5 3 3 2 6 3 5 3 6 3 9 11 11 16 12 13 8 6 5 9 6 4 6 7 8 6 7 2 4 8 5 7 8 8 8 8 12 14
3 3 3 4 2 2 5 3 2 4 3 4 4 2 3 4 4 5 6 17 11 14 14 10 4 2 9 5 1 5 5 5 4 5 8 6 8 2 3 6 6 10 9 11 15
2 2 2 2 1 3 1 3 4 6 6 7 6 6 3 4 2 4 4 3 11 19 10 14 4 10 11 8 5 5 5 6 6 4 4 7 6 6 7 9 9 9 12 14 14
1 2 2 2 1 2 2 2 4 4 4 4 3 4 5 4 5 3 4 6 7 6 8 9 9 7 8 8 4 3 2 5 7 7 7 9 11 10 14 16 16 14 13 13 14
1 2 4 2 3 2 1 3 4 7 5 5 4 7 3 5 6 4 2 1 1 5 4 2 5 8 6 6 7 4 4 0 5 2 4 3 6 5 7 9 10 15 15 15 16
2 2 1 4 3 2 2 4 8 12 8 10 11 7 8 4 9 7 5 3 3 1 2 5 7 5 8 4 7 1 3 2 4 3 5 3 6 3 3 9 14 15 18 19 19
Wind_Direction
336 335 328 327 327 324 323 324 330 330 327 324 323 324 331 325 308 131 227 213 184 149 132 117 132 191 71 330 191 136 54 212 186 151 204 128 123 133 165 140 201 195 135 140 142
331 329 324 324 323 323 320 321 324 324 327 320 321 319 331 319 259 222 250 177 191 152 129 147 156 148 132 201 246 108 118 220 197 172 167 164 150 148 128 157 0 94 97 132 140
330 326 321 322 320 319 318 319 320 321 324 319 318 318 319 311 305 252 189 176 173 171 144 146 110 132 150 203 186 178 199 205 228 167 126 143 143 112 140 201 189 149 144 147 147
328 328 322 320 319 318 314 316 316 317 317 317 313 312 320 301 99 264 159 162 178 157 126 128 105 132 149 202 240 184 216 170 141 127 132 161 130 121 171 223 166 152 148 149 155
323 324 321 320 319 319 314 313 311 312 310 311 309 313 346 9 252 136 133 139 125 147 164 152 136 149 184 202 176 177 155 1 128 132 129 131 175 165 232 158 147 148 151 157 160
320 320 319 318 318 318 318 315 311 307 304 305 307 312 352 280 193 147 123 136 144 140 158 161 188 191 233 226 158 166 71 69 121 125 146 162 162 123 236 148 152 164 174 167 164
317 318 319 317 317 319 318 312 305 301 304 297 281 221 200 238 67 147 139 172 159 163 150 206 190 123 73 201 184 145 88 78 40 115 143 112 105 231 164 162 165 182 175 150 153
314 316 317 317 317 318 314 310 303 303 301 288 200 188 244 248 141 143 182 176 159 198 209 153 212 226 165 229 37 65 56 92 262 119 184 136 240 181 172 164 177 187 162 150 163
315 317 317 319 319 317 317 310 301 305 303 127 130 187 263 86 168 184 155 191 144 156 225 215 186 190 77 96 52 10 139 133 132 223 148 175 224 177 171 175 153 158 155 161 153
320 321 320 322 321 319 321 305 294 292 135 205 252 323 272 203 190 162 185 166 148 149 180 165 74 107 55 94 172 176 122 217 181 212 202 210 208 168 170 171 163 160 169 169 165
326 324 324 325 318 322 335 350 11 7 330 252 209 260 290 334 280 183 165 137 113 84 155 198 110 179 201 206 160 137 134 176 229 187 170 201 187 186 178 175 166 177 176 169 171
325 325 325 325 317 320 293 40 109 255 297 253 246 250 250 49 293 292 114 148 131 183 149 54 202 200 148 173 100 146 163 216 259 154 212 85 250 199 187 194 187 184 173 173 157
323 325 328 326 313 4 258 229 35 24 239 280 213 222 196 154 203 244 166 151 135 159 172 155 227 151 166 172 153 201 178 219 215 35 78 50 303 161 220 212 198 197 178 172 172
323 324 334 332 39 328 281 319 322 223 10 270 223 248 170 161 243 203 170 142 137 184 144 229 251 163 156 216 149 227 210 202 178 101 236 137 261 287 212 222 204 186 173 178 183
321 323 332 324 281 321 281 329 318 94 328 220 201 291 150 151 165 202 169 70 152 162 120 234 203 176 187 217 135 233 139 184 177 180 127 195 101 267 46 151 180 189 184 191 171
318 320 330 76 239 245 316 302 48 57 251 297 160 166 118 148 193 125 126 75 148 125 84 211 221 159 200 225 180 269 68 48 53 100 188 224 152 276 195 195 202 195 201 173 169
315 310 302 236 241 187 338 5 63 181 324 309 193 168 162 169 203 125 154 159 155 143 198 317 266 260 163 223 30 90 67 328 337 2 229 176 112 243 236 207 201 200 176 169 170
310 307 244 207 226 249 16 63 198 238 261 331 7 113 185 126 219 147 131 180 232 118 150 170 277 193 198 174 178 182 163 169 213 208 248 137 216 251 251 114 184 173 165 169 184
315 293 268 248 183 129 88 132 210 224 337 335 323 129 239 204 144 135 172 193 194 173 164 143 253 248 195 181 151 204 177 195 138 29 79 232 285 306 181 229 162 192 177 189 177
294 321 261 198 150 92 92 239 254 282 334 324 359 2 195 196 152 161 169 204 212 178 153 207 269 227 212 115 130 156 167 97 5 150 228 276 280 244 226 219 206 196 204 188 173
282 328 245 149 143 58 186 231 285 285 359 350 330 301 277 182 184 174 205 234 197 182 176 144 136 288 83 166 188 86 218 54 123 139 171 184 258 222 220 197 200 208 201 183 173
318 299 356 122 92 157 211 200 325 315 353 285 238 240 247 326 273 192 207 212 183 150 177 186 163 227 222 242 190 165 201 157 145 253 183 165 264 257 214 229 149 170 171 178 165
338 277 295 125 172 246 286 291 284 302 260 278 285 266 42 288 286 208 211 236 165 167 170 169 208 83 340 1 146 198 194 180 132 96 196 160 257 348 141 146 154 147 155 162 166
292 317 293 61 358 156 113 271 252 258 256 238 247 245 276 284 258 297 278 338 174 195 159 142 129 177 210 202 178 172 192 170 144 124 179 218 238 246 221 196 166 155 164 172 170
253 273 6 303 79 10 196 297 293 296 269 282 251 224 302 266 332 296 300 352 36 71 144 135 188 170 220 213 210 259 262 167 188 215 159 253 202 230 202 198 188 169 164 165 164
286 350 342 291 292 305 117 259 281 290 234 267 207 298 321 237 215 234 293 66 153 352 97 8 212 166 233 206 210 231 220 178 214 208 244 237 254 258 69 104 154 178 175 174 177
313 334 262 307 317 226 104 350 311 337 256 230 289 325 318 259 302 230 234 214 188 302 120 140 134 108 233 173 179 251 202 183 256 258 162 165 228 134 133 170 177 176 185 183 183